RH
40 43 43 44 42 37 34 32 32 33 37 57 56 75 87 88 89 96 98 100 93 86 77 28 38 48 48 48 49 46 39 26 13 11 19 21 11 17 34 17 12 13 10
35 38 42 41 44 37 36 34 33 33 39 45 56 57 73 89 94 98 100 100 93 75 33 37 48 49 49 51 53 51 42 27 13 12 23 25 24 26 20 22 14 15 16
31 34 34 36 43 43 35 36 35 35 44 54 76 76 75 88 100 100 100 98 68 46 34 47 49 49 51 54 56 54 44 24 15 13 18 24 23 24 24 22 17 21 19
30 31 33 32 36 40 36 37 36 40 47 61 67 65 58 80 99 100 98 89 55 35 43 49 48 50 52 55 57 55 43 25 15 21 17 16 18 27 28 30 30 31 35
27 32 33 33 34 34 31 38 39 48 47 56 70 85 80 89 90 99 98 74 40 42 48 49 49 50 53 56 57 54 41 25 18 18 19 20 28 37 42 34 34 38 42
30 34 42 40 39 47 35 40 48 55 55 65 88 97 83 77 85 97 86 50 42 44 50 49 49 51 54 56 57 52 41 26 21 21 20 22 31 37 41 41 42 44 43
28 32 38 42 48 51 37 45 56 52 60 85 98 95 87 85 87 81 70 62 40 45 49 49 49 52 54 56 56 50 38 26 23 22 24 27 30 34 42 50 49 47 44
26 23 32 42 56 60 41 51 62 59 68 100 100 99 96 94 84 77 71 50 39 44 48 48 49 52 54 55 53 47 36 27 24 26 30 34 35 36 38 52 56 50 39
36 34 29 40 63 71 51 61 73 75 83 100 99 100 100 91 83 79 57 38 41 44 45 47 49 52 54 54 51 43 32 27 28 33 36 36 35 33 38 51 60 59 50
41 41 36 44 66 76 70 88 87 83 90 99 98 100 94 90 84 76 48 39 41 41 44 46 50 53 53 52 47 39 31 29 34 35 35 34 32 31 35 55 64 65 63
48 50 40 58 76 86 89 88 86 82 83 100 100 99 95 87 79 56 38 39 38 40 44 47 51 52 52 49 43 36 31 32 32 33 33 29 23 26 50 59 62 66 67
60 60 51 74 87 88 90 87 83 86 98 100 100 99 100 83 60 40 38 37 38 42 45 49 52 52 50 46 41 33 29 27 29 32 29 23 27 27 50 62 65 67 71
63 74 77 83 88 89 90 86 89 95 100 100 98 86 79 61 40 39 40 39 41 44 48 52 53 52 49 44 35 27 23 25 32 31 24 21 25 45 59 64 72 78 77
72 78 78 82 88 91 92 97 94 100 100 94 84 75 51 40 42 44 41 41 44 48 52 53 52 51 46 37 25 19 23 33 32 25 28 34 42 69 75 81 80 76 81
75 80 80 83 88 89 99 99 100 100 95 76 63 46 44 47 46 42 42 44 48 52 53 54 54 49 39 24 15 26 35 34 35 38 55 63 71 57 95 94 91 88 89
78 80 79 80 83 98 100 100 100 92 74 59 49 49 49 45 43 43 45 49 52 54 54 56 52 40 22 11 22 33 26 39 58 61 60 73 88 89 94 92 93 95 95
80 80 77 77 88 97 98 97 90 76 59 55 53 50 46 44 44 46 50 52 54 55 58 54 41 20 12 27 32 22 15 49 51 60 78 83 82 92 90 95 96 96 96
83 78 73 78 85 88 86 79 68 60 56 52 48 45 44 45 47 50 53 56 58 61 52 38 16 18 32 29 18 12 18 46 73 83 86 85 87 89 95 96 96 98 84
83 79 76 76 76 75 71 65 59 52 48 46 44 44 46 48 51 55 58 62 61 50 32 16 27 32 23 14 12 14 28 74 80 82 82 89 95 94 94 98 90 84 78
78 79 71 66 63 60 57 53 48 45 44 44 46 47 49 53 58 62 66 59 48 26 22 34 29 18 11 12 14 17 68 80 78 78 82 86 94 91 98 96 88 86 88
80 68 60 56 54 52 49 46 44 45 46 47 49 52 55 60 66 65 58 43 25 34 35 25 14 11 13 16 17 21 73 86 84 84 84 91 89 96 95 95 93 94 98
77 68 62 57 53 49 48 49 48 48 49 51 54 59 64 68 64 55 34 30 40 34 20 11 13 20 20 21 19 31 94 96 94 91 92 89 95 96 96 93 95 100 100
81 70 63 58 54 51 53 54 51 52 54 58 63 69 68 62 49 30 40 43 32 17 11 14 20 29 28 32 36 70 98 95 95 96 93 95 97 89 62 82 82 85 100
74 68 63 60 56 53 54 58 56 57 62 68 71 66 58 42 31 44 45 32 16 12 17 32 39 47 54 72 84 91 90 92 96 94 95 94 90 90 87 91 98 100 100
70 65 63 60 58 58 60 60 62 67 71 72 65 57 35 35 48 47 34 17 12 16 20 24 28 68 74 82 96 97 97 99 95 97 92 85 82 89 94 97 100 100 100
66 64 63 63 61 62 64 67 70 73 72 64 52 30 39 50 49 36 17 12 16 19 20 19 23 31 54 91 100 100 100 99 100 97 88 87 94 98 100 100 99 98 100
Wind_Speed
24 22 21 19 21 22 22 21 24 24 25 30 34 31 26 24 22 21 21 21 17 14 12 10 6 1 5 9 13 16 17 17 16 13 6 5 4 5 5 6 9 14 13
32 29 25 23 21 23 22 22 22 23 27 30 32 30 30 26 25 24 26 25 20 16 14 10 5 2 6 11 14 16 17 17 16 14 7 5 3 0 11 14 16 4 19
36 34 33 32 25 24 26 24 23 24 27 30 36 35 31 29 30 31 32 25 21 18 15 10 4 3 7 11 15 16 16 14 15 13 7 4 3 15 4 12 11 18 21
35 37 36 33 30 29 27 27 26 24 28 32 38 36 35 33 32 33 29 25 23 20 15 9 4 4 8 12 14 17 16 13 12 11 12 8 8 5 10 9 14 16 21
25 27 32 33 31 30 31 30 29 25 27 31 35 36 31 30 28 32 30 28 25 21 15 9 5 4 7 11 14 16 16 14 13 12 12 11 10 8 9 20 16 21 20
16 22 22 21 26 25 32 32 29 28 27 28 32 36 33 30 32 35 32 30 26 23 16 9 6 5 7 11 13 15 16 15 14 13 12 12 10 10 12 19 23 25 23
15 15 18 21 24 30 32 32 31 31 28 27 33 37 30 25 26 30 33 31 28 22 15 9 6 6 7 10 13 15 16 15 14 13 13 15 16 17 17 18 24 25 26
19 21 18 17 21 28 31 34 33 31 30 31 34 34 31 26 26 29 33 30 26 20 14 9 7 7 8 11 13 15 15 15 14 15 16 17 18 20 20 19 21 30 23
19 17 18 17 19 25 30 34 33 30 32 35 37 34 31 29 30 32 32 29 24 17 13 10 8 8 9 11 13 15 15 15 15 16 18 19 20 21 21 20 18 22 30
22 20 15 15 17 23 28 28 28 29 34 36 35 34 31 29 28 31 31 27 21 16 13 10 8 9 10 12 14 15 15 15 17 18 20 21 21 22 21 20 19 20 25
22 20 12 13 16 21 25 27 28 31 32 36 35 33 32 28 30 31 29 24 18 15 12 10 9 9 11 13 14 15 16 17 19 20 22 23 23 22 19 18 19 20 22
23 17 10 14 19 24 27 28 30 31 35 34 32 30 32 32 32 29 25 20 17 14 12 10 9 10 12 13 15 16 17 19 21 22 24 24 22 22 19 18 19 21 23
21 10 8 15 19 24 28 31 33 34 34 32 32 31 30 31 30 26 22 19 16 13 10 9 9 11 13 15 16 16 19 21 22 23 23 23 22 20 17 19 21 22 25
16 6 9 15 20 23 29 34 34 34 33 33 31 31 31 29 26 23 20 17 14 11 9 8 10 12 14 16 17 18 20 21 22 23 22 22 21 18 19 21 23 25 28
11 5 10 17 21 24 31 35 34 34 34 32 31 31 29 27 24 21 18 14 11 9 8 9 11 13 15 16 17 19 20 21 21 21 21 19 19 23 20 22 24 26 29
8 7 13 18 22 28 34 35 34 34 32 32 31 30 27 25 22 19 14 11 9 7 8 10 13 15 15 18 20 21 21 20 20 20 20 19 20 20 22 24 24 25 29
9 11 16 20 25 28 32 35 34 33 32 31 29 27 25 22 19 14 11 8 7 8 10 12 14 15 17 19 20 21 21 19 20 20 19 19 19 21 23 24 24 29 23
11 15 20 24 27 29 32 34 33 32 30 29 27 24 22 18 15 11 8 6 7 9 11 13 14 17 18 19 21 22 20 19 17 17 18 19 20 20 23 27 29 27 30
14 17 22 27 29 31 32 33 32 30 28 26 24 20 17 14 11 8 5 6 7 10 11 13 15 17 18 20 22 22 20 16 17 17 19 20 20 21 25 26 32 29 27
19 25 27 29 30 31 31 30 30 28 26 23 20 18 14 10 8 6 5 6 8 10 12 14 16 17 18 21 22 22 17 16 17 18 19 19 20 25 24 28 28 30 27
21 25 26 29 29 30 29 29 28 25 22 20 18 15 12 9 6 3 4 6 8 10 12 14 16 18 20 21 21 20 16 15 19 20 20 20 22 24 27 27 25 23 27
24 26 28 28 28 28 27 26 24 22 20 17 15 13 10 6 3 2 4 7 9 11 13 14 16 18 20 21 21 18 15 16 18 20 20 23 25 28 27 24 21 22 24
26 28 30 30 27 25 20 22 22 21 18 16 14 10 6 3 1 2 5 8 10 12 14 17 18 19 20 19 18 17 17 18 20 20 23 26 27 26 23 20 20 21 18
26 29 30 29 28 24 21 19 21 19 16 14 11 8 4 2 2 4 7 9 11 14 16 17 19 19 18 15 15 17 18 19 19 22 25 24 23 19 19 18 17 18 18
28 29 29 29 28 24 20 20 19 17 14 11 8 5 3 1 3 6 8 10 13 15 18 18 19 16 16 15 19 20 19 20 22 26 21 18 18 18 17 18 19 19 20
30 29 28 27 26 23 22 21 17 13 9 8 6 4 2 2 5 7 9 12 14 17 18 19 18 18 17 18 18 18 19 21 21 19 16 16 16 17 18 19 23 25 25
Wind_Direction
255 253 249 247 243 245 241 240 247 241 234 212 211 207 202 205 207 204 203 199 199 196 196 196 205 268 349 356 357 354 352 350 354 1 349 340 312 273 244 271 332 302 316
251 248 248 245 244 242 241 242 241 245 229 221 210 208 203 200 205 203 200 194 191 190 192 196 202 300 352 360 1 1 356 353 358 7 357 328 308 297 301 282 301 291 323
251 248 243 242 244 240 237 238 238 240 223 217 204 204 197 197 197 195 191 186 185 189 192 196 215 325 353 359 359 359 360 354 352 0 18 328 300 313 278 296 306 305 311
248 244 240 237 235 236 239 235 235 230 216 213 210 209 203 195 195 197 192 186 188 191 195 201 230 313 349 355 355 357 356 354 348 350 347 341 312 310 307 308 308 296 312
253 244 240 235 232 234 236 230 228 216 213 213 210 203 192 190 194 193 189 187 189 193 198 206 239 307 344 350 352 353 351 347 343 338 335 331 322 306 295 304 304 305 310
256 245 247 235 229 224 224 224 215 209 209 208 203 197 194 202 194 188 188 188 191 195 197 209 244 301 334 344 347 347 345 341 335 331 329 327 317 305 296 298 303 308 313
282 264 249 240 224 214 215 214 206 206 203 200 198 193 200 204 200 194 191 193 193 196 200 217 248 290 323 335 341 343 339 334 328 324 322 320 316 309 303 299 303 303 308
289 269 254 248 220 210 209 206 200 200 196 191 197 192 197 196 196 197 194 194 195 198 206 226 250 285 313 330 336 337 332 327 323 320 319 315 311 307 304 300 304 309 307
331 287 257 244 212 200 202 199 193 192 191 189 194 195 189 186 189 193 191 193 197 202 215 232 253 285 311 325 329 331 328 324 318 316 313 310 307 306 304 299 295 298 303
333 321 251 234 209 195 190 186 185 184 189 190 190 191 180 184 194 193 192 194 199 208 222 236 259 286 309 319 327 328 324 319 313 310 308 310 309 306 302 297 292 288 290
332 318 254 215 196 181 175 176 179 185 188 185 188 181 179 180 191 190 190 195 204 215 225 241 265 291 309 320 324 321 318 313 308 309 310 310 308 306 300 295 293 291 291
332 321 228 194 179 172 166 172 180 183 181 183 178 185 185 182 185 186 191 199 210 219 230 247 273 297 311 317 317 317 312 309 309 309 310 311 308 306 302 300 298 296 295
338 322 196 180 174 167 166 174 176 178 176 174 175 171 174 179 182 188 196 205 213 222 235 258 285 303 310 312 315 312 310 309 308 309 309 308 307 305 303 302 301 300 299
331 293 190 173 167 162 167 171 172 174 172 168 168 173 175 179 185 192 198 206 214 227 246 273 294 303 308 313 311 310 310 308 308 307 306 306 303 302 305 303 301 300 299
299 228 179 163 159 158 167 169 170 169 168 166 169 171 175 181 187 193 198 205 218 237 262 286 297 306 311 308 310 312 312 309 304 303 303 302 298 303 303 303 303 301 298
263 194 170 160 156 160 164 165 166 166 167 168 169 171 176 181 186 191 195 208 226 252 277 292 304 308 306 310 312 313 311 306 303 303 304 303 304 304 304 303 302 299 302
207 174 160 155 154 158 162 162 161 164 165 166 167 171 176 180 183 188 196 212 240 269 289 302 305 307 311 313 313 314 314 305 304 305 305 304 303 306 306 305 306 304 302
162 155 151 149 151 152 155 158 158 161 165 166 167 170 174 177 180 186 198 226 260 286 298 303 309 313 313 315 316 318 316 309 306 304 305 305 306 307 309 309 310 305 308
146 146 150 149 151 155 157 158 158 160 162 163 166 167 171 175 177 185 209 249 282 294 303 311 313 316 317 319 321 320 318 308 307 308 310 307 304 308 314 310 311 311 306
147 154 154 151 151 152 155 156 156 160 162 162 162 163 164 168 175 195 237 276 292 304 312 316 319 318 320 321 323 323 318 312 311 311 309 305 306 311 311 314 310 308 307
146 152 149 151 153 155 158 157 156 158 160 159 161 160 160 170 184 224 277 297 308 315 319 322 322 320 321 324 326 323 321 312 311 310 309 310 309 311 309 308 306 302 310
145 152 154 153 155 158 162 157 157 156 158 157 156 160 165 173 207 272 306 317 320 323 326 326 326 325 326 327 326 322 318 314 309 308 308 307 308 309 311 311 308 309 309
150 156 158 152 151 155 166 161 157 157 155 155 157 160 167 171 152 334 324 324 329 330 330 329 328 328 327 325 321 325 328 321 312 312 309 308 310 313 316 314 317 321 317
145 150 151 149 147 153 160 162 154 152 153 156 160 156 141 108 348 328 332 334 335 334 332 331 328 325 324 324 323 323 321 316 316 311 310 309 312 313 316 320 321 320 319
142 149 151 148 146 151 155 152 148 152 156 156 146 136 126 45 343 339 338 337 333 335 332 326 322 318 314 313 318 318 318 314 312 309 313 311 314 317 320 322 324 325 323
143 146 147 149 146 149 149 148 149 150 153 147 140 133 104 6 344 339 335 333 332 329 326 323 319 317 313 313 316 318 310 311 311 314 309 311 316 319 322 324 328 331 331